Flag for Germany Weather past 2 weeks in Gladbeck, North Rhine-Westphalia, Germany

Now
47 °F

Overcast.


Feels Like: 46 °F
Forecast: 36 / 47 °F
Wind: 3 mph from West

Location: Duesseldorf

Current Time: Mar 5, 2015 at 3:42:49 PM

Latest Report: Mar 5, 2015 at 3:00 PM


Visibility: 22 mi

Pressure: 30.63 "Hg

Humidity: 59%

Dew point: 33 °F

Location of GladbeckLocation

Historic Weather in Gladbeck — Graph

°F

Gladbeck temperature yesterday

Maximum temperature yesterday: 44 °F (at 5:00 PM)
Minimum temperature yesterday: 33 °F (at 5:00 AM)
Average temperature yesterday: 39 °F

Past Weeks' High & Low Weather Summary

 TemperatureHumidityPressure
High52 °F (Mar 1, 1:00 PM)99% (Feb 22, 6:00 AM)30.71 "Hg (Feb 22, 6:00 AM)
Low28 °F (Feb 28, 5:00 AM)47% (Mar 2, 2:00 PM)29.35 "Hg (Feb 21, 5:00 AM)
Average40 °F80%29.93 "Hg
* Reported Feb 18 2:00 PM — Mar 5 2:00 PM, Gladbeck, Weather by CustomWeather, © 2015

Note: Actual official high and low records may vary slightly from our data, if they occured in-between our weather recording intervals... More about our weather records

Advertising

Gladbeck weather history for previous 24 hours

 ConditionsComfort  
Time TempWeatherWind HumidityBarometerVisibility
2:00 PM
Thu, Mar 5
46 °FOvercast.3 mph65%30.64 "Hg16 mi
1:00 PM45 °FOvercast.2 mph74%30.66 "Hg11 mi
12:00 PM42 °FOvercast.2 mph83%30.67 "Hg8 mi
11:00 AM39 °FFog.2 mph93%30.68 "Hg3 mi
9:00 AM38 °FFog.2 mph97%30.66 "Hg2 mi
8:00 AM38 °FFog.3 mph97%30.64 "Hg2 mi
7:00 AM38 °FFog.3 mph96%30.63 "Hg2 mi
6:00 AM37 °FLow clouds.3 mph95%30.62 "Hg9 mi
5:00 AM37 °FPassing clouds.2 mph93%30.60 "Hg17 mi
3:00 AM40 °FOvercast.3 mph82%30.57 "Hg22 mi
2:00 AM40 °FOvercast.5 mph83%30.55 "Hg19 mi
1:00 AM41 °FOvercast.5 mph83%30.52 "Hg19 mi
12:00 AM41 °FOvercast.5 mph85%30.50 "Hg22 mi
11:00 PM
Wed, Mar 4
41 °FOvercast.6 mph85%30.47 "Hg22 mi
9:00 PM40 °FOvercast.3 mph89%30.41 "Hg17 mi
8:00 PM39 °FOvercast.3 mph89%30.40 "Hg19 mi
7:00 PM38 °FLight rain. Overcast.5 mph90%30.38 "Hg16 mi
6:00 PM42 °FScattered clouds.7 mph72%30.34 "Hg25 mi
5:00 PM44 °FScattered clouds.8 mph66%30.31 "Hg25 mi
4:00 PM42 °FPartly sunny.6 mph80%30.29 "Hg25 mi
3:00 PM43 °FSleet. Partly sunny.6 mph71%30.28 "Hg19 mi
Weather by CustomWeather, © 2015

See weather overviewHow to use our weather pages